Location: Unspecified
(41.4057°N, 2.1753°E)
Time: 11:31:21
(UTC+02:00)

ISS - Visible Passes

Search period start: 29 April 2017 00:00
Search period end: 09 May 2017 00:00
Orbit: 401 x 409 km, 51.6° (Epoch: 29 April)

Date Brightness Start Highest point End Pass type
(mag) Time Alt. Az. Time Alt. Az. Time Alt. Az.
05 May -1.6 05:34:29 10° S 05:36:54 19° SE 05:39:19 10° E visible
06 May -1.0 04:44:52 10° SE 04:45:03 10° SE 04:45:13 10° SE visible
07 May -3.2 05:27:04 20° SSW 05:28:58 46° SE 05:32:08 10° ENE visible
08 May -2.2 04:36:59 24° SE 04:36:59 24° SE 04:39:42 10° ENE visible
